Time,TemperatureF,DewpointF,PressureIn,WindDirection,WindDirectionDegrees,WindSpeedMPH,WindSpeedGustMPH,Humidity,HourlyPrecipIn,Conditions,Clouds,dailyrainin,SoftwareType,DateUTC
2013-02-01 00:03:00,68.0,59.0,30.14,NE,54,18.0,25.0,73,0.00,,,0.00,,2013-02-01 05:03:00,
2013-02-01 00:12:00,68.0,59.0,30.14,NE,54,18.0,25.0,73,0.00,,,0.00,,2013-02-01 05:12:00,
2013-02-01 00:22:00,68.0,60.0,30.14,NE,55,16.0,23.0,75,0.00,,,0.00,,2013-02-01 05:22:00,
2013-02-01 00:32:00,68.0,59.0,30.13,NE,54,19.0,24.0,73,0.00,,,0.00,,2013-02-01 05:32:00,
2013-02-01 00:42:00,68.0,59.0,30.13,NE,54,19.0,24.0,73,0.00,,,0.00,,2013-02-01 05:42:00,
2013-02-01 00:52:00,67.0,58.0,30.14,NE,56,18.0,24.0,73,0.00,,,0.00,,2013-02-01 05:52:00,
2013-02-01 01:02:00,67.0,59.0,30.13,NE,38,14.0,22.0,75,0.00,,,0.00,,2013-02-01 06:02:00,
2013-02-01 01:11:00,67.0,59.0,30.13,NE,38,14.0,22.0,75,0.00,,,0.00,,2013-02-01 06:11:00,
2013-02-01 01:22:00,67.0,58.0,30.13,ENE,61,16.0,25.0,72,0.00,,,0.00,,2013-02-01 06:22:00,
2013-02-01 01:32:00,67.0,57.0,30.14,NE,44,18.0,23.0,70,0.00,,,0.00,,2013-02-01 06:32:00,
2013-02-01 01:42:00,67.0,57.0,30.14,NE,44,18.0,23.0,70,0.00,,,0.00,,2013-02-01 06:42:00,
2013-02-01 01:52:00,67.0,56.0,30.13,NE,50,22.0,25.0,69,0.00,,,0.00,,2013-02-01 06:52:00,
2013-02-01 02:02:00,66.0,56.0,30.13,NNE,26,17.0,23.0,71,0.00,,,0.00,,2013-02-01 07:02:00,
2013-02-01 02:12:00,65.0,55.0,30.13,NW,323,22.0,26.0,70,0.00,,,0.00,,2013-02-01 07:12:00,
2013-02-01 02:22:00,65.0,55.0,30.13,NW,323,22.0,26.0,70,0.00,,,0.00,,2013-02-01 07:22:00,
2013-02-01 02:32:00,65.0,56.0,30.14,NE,46,22.0,28.0,72,0.00,,,0.00,,2013-02-01 07:32:00,
2013-02-01 02:42:00,65.0,56.0,30.14,NE,46,22.0,28.0,72,0.00,,,0.00,,2013-02-01 07:42:00,
2013-02-01 02:52:00,64.0,55.0,30.14,NNE,26,21.0,28.0,72,0.00,,,0.00,,2013-02-01 07:52:00,
2013-02-01 03:01:00,64.0,55.0,30.14,NE,49,23.0,27.0,73,0.00,,,0.00,,2013-02-01 08:01:00,
2013-02-01 03:11:00,64.0,55.0,30.14,NE,49,23.0,27.0,73,0.00,,,0.00,,2013-02-01 08:11:00,
2013-02-01 03:21:00,63.0,53.0,30.13,NE,42,18.0,24.0,71,0.00,,,0.00,,2013-02-01 08:21:00,
2013-02-01 03:32:00,63.0,54.0,30.13,NE,39,23.0,28.0,72,0.00,,,0.00,,2013-02-01 08:32:00,
2013-02-01 03:42:00,63.0,54.0,30.13,NE,39,23.0,28.0,72,0.00,,,0.00,,2013-02-01 08:42:00,
2013-02-01 03:52:00,62.0,53.0,30.13,NNW,344,21.0,27.0,73,0.00,,,0.00,,2013-02-01 08:52:00,
2013-02-01 04:01:00,62.0,53.0,30.13,NE,51,20.0,27.0,72,0.00,,,0.00,,2013-02-01 09:01:00,
2013-02-01 04:11:00,62.0,53.0,30.13,NE,51,20.0,27.0,72,0.00,,,0.00,,2013-02-01 09:11:00,
2013-02-01 04:21:00,62.0,53.0,30.12,NE,53,21.0,26.0,72,0.00,,,0.00,,2013-02-01 09:21:00,
2013-02-01 04:32:00,61.0,52.0,30.13,NNE,29,19.0,26.0,72,0.00,,,0.00,,2013-02-01 09:32:00,
2013-02-01 04:42:00,61.0,52.0,30.13,NNE,29,19.0,26.0,72,0.00,,,0.00,,2013-02-01 09:42:00,
2013-02-01 04:52:00,61.0,53.0,30.12,NE,42,20.0,28.0,74,0.00,,,0.00,,2013-02-01 09:52:00,
2013-02-01 05:01:00,61.0,53.0,30.12,NNE,28,19.0,28.0,74,0.00,,,0.00,,2013-02-01 10:01:00,
2013-02-01 05:11:00,61.0,53.0,30.12,NNE,28,19.0,28.0,74,0.00,,,0.00,,2013-02-01 10:11:00,
2013-02-01 05:21:00,60.0,52.0,30.12,ENE,76,24.0,31.0,75,0.00,,,0.00,,2013-02-01 10:21:00,
2013-02-01 05:32:00,61.0,52.0,30.12,NE,49,22.0,29.0,73,0.00,,,0.00,,2013-02-01 10:32:00,
2013-02-01 05:42:00,61.0,52.0,30.12,NE,49,22.0,29.0,73,0.00,,,0.00,,2013-02-01 10:42:00,
2013-02-01 05:53:00,61.0,54.0,30.12,NNE,24,21.0,28.0,77,0.00,,,0.00,,2013-02-01 10:53:00,
2013-02-01 06:02:00,61.0,53.0,30.13,NE,54,23.0,29.0,74,0.00,,,0.00,,2013-02-01 11:02:00,
2013-02-01 06:11:00,61.0,53.0,30.13,NE,54,23.0,29.0,74,0.00,,,0.00,,2013-02-01 11:11:00,
2013-02-01 06:22:00,61.0,54.0,30.14,NE,56,26.0,30.0,78,0.00,,,0.00,,2013-02-01 11:22:00,
2013-02-01 06:32:00,60.0,53.0,30.14,NE,53,24.0,31.0,78,0.00,,,0.00,,2013-02-01 11:32:00,
2013-02-01 06:42:00,60.0,53.0,30.14,NE,53,24.0,31.0,78,0.00,,,0.00,,2013-02-01 11:42:00,
2013-02-01 06:53:00,60.0,53.0,30.16,NNE,32,26.0,31.0,77,0.00,,,0.00,,2013-02-01 11:53:00,
2013-02-01 07:03:00,60.0,53.0,30.16,NNE,17,25.0,30.0,79,0.00,,,0.00,,2013-02-01 12:03:00,
2013-02-01 07:12:00,60.0,53.0,30.16,NNE,17,25.0,30.0,79,0.00,,,0.00,,2013-02-01 12:12:00,
2013-02-01 07:23:00,59.0,52.0,30.17,NNE,26,24.0,32.0,79,0.00,,,0.00,,2013-02-01 12:23:00,
2013-02-01 07:32:00,60.0,54.0,30.16,ENE,67,25.0,30.0,80,0.00,,,0.00,,2013-02-01 12:32:00,
2013-02-01 07:42:00,60.0,54.0,30.16,ENE,67,25.0,30.0,80,0.00,,,0.00,,2013-02-01 12:42:00,
2013-02-01 07:52:00,61.0,54.0,30.17,ENE,60,25.0,31.0,79,0.00,,,0.00,,2013-02-01 12:52:00,
2013-02-01 08:02:00,61.0,55.0,30.17,ENE,65,26.0,32.0,80,0.00,,,0.00,,2013-02-01 13:02:00,
2013-02-01 08:11:00,61.0,55.0,30.17,ENE,65,26.0,32.0,80,0.00,,,0.00,,2013-02-01 13:11:00,
2013-02-01 08:22:00,60.0,53.0,30.18,NE,53,28.0,33.0,78,0.00,,,0.00,,2013-02-01 13:22:00,
2013-02-01 08:33:00,61.0,54.0,30.19,ENE,57,26.0,33.0,78,0.00,,,0.00,,2013-02-01 13:33:00,
2013-02-01 08:42:00,61.0,54.0,30.19,ENE,57,26.0,33.0,78,0.00,,,0.00,,2013-02-01 13:42:00,
2013-02-01 08:53:00,61.0,54.0,30.19,NE,46,28.0,32.0,78,0.00,,,0.00,,2013-02-01 13:53:00,
2013-02-01 09:03:00,61.0,53.0,30.19,NE,34,30.0,33.0,76,0.00,,,0.00,,2013-02-01 14:03:00,
2013-02-01 09:11:00,61.0,54.0,30.20,NE,45,27.0,33.0,78,0.00,,,0.00,,2013-02-01 14:11:00,
2013-02-01 09:22:00,61.0,54.0,30.20,NE,45,27.0,33.0,78,0.00,,,0.00,,2013-02-01 14:22:00,
2013-02-01 09:32:00,61.0,53.0,30.20,ENE,62,29.0,32.0,76,0.00,,,0.00,,2013-02-01 14:32:00,
2013-02-01 09:42:00,61.0,53.0,30.20,ENE,62,29.0,32.0,76,0.00,,,0.00,,2013-02-01 14:42:00,
2013-02-01 09:53:00,62.0,55.0,30.21,ENE,57,28.0,32.0,77,0.00,,,0.00,,2013-02-01 14:53:00,
2013-02-01 10:02:00,62.0,54.0,30.21,ENE,57,25.0,32.0,76,0.00,,,0.00,,2013-02-01 15:02:00,
2013-02-01 10:12:00,62.0,54.0,30.21,ENE,57,25.0,32.0,76,0.00,,,0.00,,2013-02-01 15:12:00,
2013-02-01 10:22:00,62.0,54.0,30.21,ENE,57,25.0,32.0,76,0.00,,,0.00,,2013-02-01 15:22:00,
2013-02-01 10:33:00,62.0,54.0,30.21,ENE,57,25.0,32.0,76,0.00,,,0.00,,2013-02-01 15:33:00,
2013-02-01 10:42:00,62.0,54.0,30.21,ENE,57,25.0,32.0,76,0.00,,,0.00,,2013-02-01 15:42:00,
2013-02-01 20:32:00,70.0,60.0,30.19,East,81,24.0,27.0,70,0.00,,,0.00,,2013-02-02 01:32:00,
2013-02-01 20:42:00,70.0,60.0,30.19,East,81,24.0,27.0,70,0.00,,,0.00,,2013-02-02 01:42:00,
2013-02-01 20:52:00,70.0,61.0,30.19,East,81,21.0,29.0,72,0.00,,,0.00,,2013-02-02 01:52:00,
2013-02-01 21:01:00,70.0,59.0,30.20,ENE,67,25.0,30.0,69,0.00,,,0.00,,2013-02-02 02:01:00,
2013-02-01 21:11:00,70.0,59.0,30.20,ENE,67,25.0,30.0,69,0.00,,,0.00,,2013-02-02 02:11:00,
2013-02-01 21:22:00,70.0,61.0,30.19,East,82,23.0,28.0,72,0.00,,,0.00,,2013-02-02 02:22:00,
2013-02-01 21:32:00,70.0,61.0,30.19,East,79,20.0,28.0,74,0.00,,,0.00,,2013-02-02 02:32:00,
2013-02-01 21:42:00,70.0,61.0,30.19,East,79,20.0,28.0,74,0.00,,,0.00,,2013-02-02 02:42:00,
2013-02-01 21:52:00,69.0,60.0,30.19,East,82,25.0,28.0,72,0.00,,,0.00,,2013-02-02 02:52:00,
2013-02-01 22:02:00,69.0,60.0,30.20,ENE,78,17.0,27.0,73,0.00,,,0.00,,2013-02-02 03:02:00,
2013-02-01 22:11:00,69.0,60.0,30.20,East,86,23.0,29.0,73,0.00,,,0.00,,2013-02-02 03:11:00,
2013-02-01 22:22:00,69.0,60.0,30.20,East,86,23.0,29.0,73,0.00,,,0.00,,2013-02-02 03:22:00,
2013-02-01 22:32:00,69.0,60.0,30.20,East,84,24.0,30.0,72,0.00,,,0.00,,2013-02-02 03:32:00,
2013-02-01 22:42:00,69.0,60.0,30.20,East,89,21.0,27.0,72,0.00,,,0.00,,2013-02-02 03:42:00,
2013-02-01 22:52:00,69.0,60.0,30.20,East,89,21.0,27.0,72,0.00,,,0.00,,2013-02-02 03:52:00,
2013-02-01 23:02:00,69.0,60.0,30.20,ENE,61,23.0,27.0,73,0.00,,,0.00,,2013-02-02 04:02:00,
2013-02-01 23:11:00,69.0,60.0,30.20,ENE,61,23.0,27.0,73,0.00,,,0.00,,2013-02-02 04:11:00,
2013-02-01 23:22:00,69.0,60.0,30.20,East,88,17.0,27.0,73,0.00,,,0.00,,2013-02-02 04:22:00,
2013-02-01 23:32:00,69.0,60.0,30.20,ENE,75,18.0,26.0,74,0.00,,,0.00,,2013-02-02 04:32:00,
2013-02-01 23:42:00,69.0,60.0,30.20,ENE,75,18.0,26.0,74,0.00,,,0.00,,2013-02-02 04:42:00,
2013-02-01 23:52:00,68.0,61.0,30.19,NE,52,18.0,25.0,78,0.00,,,0.00,,2013-02-02 04:52:00,